DELTA 1 DEB, 42646

Orbit data source: Space-Track

DELTA 1 DEB, 42646 is space debris in SSO originally from a launch on Thu, 12 Jun 1975 UTC launched from the Air Force Western Test Range (AFWTR). Debris objects in space refer to the collection of defunct objects orbiting the Earth. Examples of debris include non-operational satellites, rocket bodies, and fragments generated from explosions, collisions, or faulty payload assembly.

Loading next visibility...
Identifier
42646, 1975-052MF
Orbit
SSO
Country
Flag of USUS
Related business
Manufacturer
Unknown
Mission
Spacecraft
Bus & Motor
Unknown
Mass
Unknown
Launch date (UTC)
1975-06-12 (51 years ago)
Launch vehicle
Unknown
Launch site
Air Force Western Test Range (AFWTR)
Object type
Payload
Rocket body
Debris
Shape & HBR
Unknown shape, 0.1 m
Radar Cross Section
Small (<0.1 m²)

Expand to show TLE details & history
Last TLE update: 2 days ago

TLE from 2 days ago
0 DELTA 1 DEB
1 42646U 75052MF  26123.05534970  .00000120  00000-0  31730-3 0  9998
2 42646 100.0115  40.8224 0054594 325.2383  34.5180 13.36114477561049
Epoch: 2026-05-03T01:19Z
TLE epoch observation values (Epoch: 2026-05-03T01:19:42.214Z)
Latitude
-0.00004°
Longitude
159.93212°
Altitude
1,092.865 km
Speed
7.322 km/s
True Right ascension
02h 43m 17s
True Declination
0° 00' 00"
Sunlit
Object was in daylight at epoch
Visualization orbit readout
Latitude
Unknown
Longitude
Unknown
Altitude
Unknown
Speed
Unknown
Apparent Right ascension
Unknown
Apparent Declination
Unknown
Sunlit
N/A
Visualization observer readout
Local Sidereal Time
10:35:48
Azimuth
Unknown
Elevation
Unknown
Doppler factor
Unknown
Orbital elements
Apogee altitude
1,162.066 km
Perigee altitude
1,080.183 km
Semi-major axis
7,499.261 km
Eccentricity
0.00546
Inclination
100.0115°
RAAN
40.8224°
Arg. of periapsis
325.2383°
True anomaly
34.87451°
Mean anomaly
34.518°
Eccentric anomaly
34.69605°
Mean motion
3.34207 °/min
Orbital period
107.72 mins
BSTAR
0.0003173
Loading maneuver chart data...
Computing Atmospheric mass density...

Documentation

Showing up to 5 results
|